This demonstration page uses our WeatherBlox Daily Observations layout. Learn more.

Left ArrowRight Arrow

Hourly Observations for November 21, 2015

Temp ( °F °C ) Dew Point ( °F °C ) Humidity (%) Winds ( mph kmh ) Pressure ( in mb ) Visibility ( mi km ) Precip ( " mm )
12:51 am 00:51 Clear 43 6.1 30 -1.1 60 60 N N/A 30.02 1017 10 16 N/A
1:51 am 01:51 Clear 42 5.6 30 -1.1 62 62 VRB 3 6 30.03 1017 10 16 N/A
2:51 am 02:51 Clear 41 5 31 -0.6 67 67 ENE 5 7 30.04 1017 10 16 N/A
3:51 am 03:51 Clear 43 6.1 31 -0.6 63 63 ESE 9 15 30.04 1017 10 16 N/A
4:51 am 04:51 Clear 41 5 31 -0.6 67 67 ESE 8 13 30.05 1018 10 16 N/A
5:51 am 05:51 undefined N/A N/A N/A undefined N/A N/A N/A N/A
6:51 am 06:51 undefined 47 8.3 31 -0.6 54 54 SSE 13 20 30.10 1019 10 16 N/A
7:51 am 07:51 Sunny 47 8.3 31 -0.6 54 54 SSE 15 24 30.13 1020 10 16 N/A
8:51 am 08:51 Sunny 53 11.7 32 undefined 45 45 SSE 15 24 30.14 1021 10 16 N/A
9:51 am 09:51 Sunny 63 17.2 28 -2.2 27 27 SE 13 20 30.12 1020 10 16 N/A
10:51 am 10:51 Sunny 65 18.3 32 undefined 29 29 SSE 10 17 30.12 1020 10 16 N/A
11:51 am 11:51 Sunny 67 19.4 27 -2.8 22 22 ESE 13 20 30.11 1020 10 16 N/A
12:51 pm 12:51 Sunny 69 20.6 23 -5 17 17 SE 14 22 30.09 1019 10 16 N/A
1:51 pm 13:51 Sunny 69 20.6 21 -6.1 16 16 ESE 13 20 30.06 1018 10 16 N/A
2:51 pm 14:51 Sunny 68 20 23 -5 18 18 SE 13 20 30.06 1018 10 16 N/A
4:51 pm 16:51 Sunny 64 17.8 24 -4.4 22 22 SSE 10 17 30.06 1018 10 16 N/A
5:51 pm 17:51 Clear 59 15 24 -4.4 26 26 SE 8 13 30.09 1019 10 16 N/A
6:51 pm 18:51 Clear 57 13.9 24 -4.4 28 28 E 10 17 30.11 1020 10 16 N/A
7:51 pm 19:51 Clear 52 11.1 25 -3.9 35 35 SE 9 15 30.14 1021 10 16 N/A
8:51 pm 20:51 Clear 50 10 24 -4.4 36 36 SE 8 13 30.15 1021 10 16 N/A
9:51 pm 21:51 Clear 48 8.9 24 -4.4 39 39 SSE 9 15 30.15 1021 10 16 N/A
10:51 pm 22:51 Clear 48 8.9 24 -4.4 39 39 SE 9 15 30.14 1021 10 16 N/A
11:51 pm 23:51 Clear 49 9.4 23 -5 36 36 SE 10 17 30.14 1021 10 16 N/A

Powered by AerisWeather